Weather History for Maxwell AFB, AL

Change the Weather History Date:

Monday, June 24, 2013

  Actual Average Record
Temperature  
Mean Temperature 80 °F -  
Max Temperature 86 °F 87 °F 100 °F (1998)
Min Temperature 73 °F 70 °F 66 °F (2001)
Cooling Degree Days 14    
Growing Degree Days 30 (Base 50)    
Moisture  
Dew Point 71 °F    
Average Humidity 83    
Maximum Humidity 95    
Minimum Humidity 64    
Precipitation  
Precipitation 0.20 in - - ()
Sea Level Pressure  
Sea Level Pressure 30.15 in    
Wind  
Wind Speed 5 mph (ESE)    
Max Wind Speed 16 mph    
Max Gust Speed 22 mph    
Visibility 9 miles    
Events Rain , Thunderstorm    
Averages and records for this station are not official NWS values.
T = Trace of Precipitation, MM = Missing Value Source: NWS Daily Summary

Daily Weather History Graph

Daily Weather History Graph

Search for Another Location

Airport:

Trip Planner

Search our weather history database for the weather conditions in past years. The results will help you decide how hot, cold, wet, or windy it might be!

Date:

Astronomy

Jun. 24, 2013 Rise Set
Actual Time 5:39 AM CDT 7:56 PM CDT
Civil Twilight 5:11 AM CDT 8:24 PM CDT
Nautical Twilight 4:36 AM CDT 8:59 PM CDT
Astronomical Twilight 3:58 AM CDT 9:37 PM CDT
Moon 9:05 PM CDT (6/24) 7:00 AM CDT (6/24)
Length of Visible Light 15h 13m
Length of Day
14h 16m
Full, 98% of the Moon is Illuminated
Jun 24
Full
Jun 29
Last Quarter
Jul 8
New
Jul 15
First Quarter
Jul 22
Full

Hourly Weather History & Observations

Time (CDT) Temp. Heat Index Dew Point Humidity Pressure Visibility Wind Dir Wind Speed Gust Speed Precip Events Conditions
12:33 AM 75.2 °F - 71.6 °F 89% 30.14 in 10.0 mi SSE 3.5 mph - N/A   Mostly Cloudy
12:43 AM 75.2 °F - 71.6 °F 89% 30.14 in 10.0 mi SSE 3.5 mph - N/A   Scattered Clouds
12:58 AM 74.5 °F - 72.1 °F 92% 30.14 in 10.0 mi South 2.3 mph - N/A   Scattered Clouds
1:58 AM 73.9 °F - 71.2 °F 91% 30.14 in 10.0 mi Calm Calm - N/A   Scattered Clouds
2:58 AM 74.3 °F - 72.0 °F 92% 30.14 in 10.0 mi SSE 5.8 mph - N/A   Overcast
3:58 AM 74.7 °F - 72.0 °F 91% 30.14 in 10.0 mi SE 3.5 mph - N/A   Overcast
4:58 AM 73.4 °F - 71.2 °F 93% 30.16 in 10.0 mi SSE 4.6 mph - N/A   Mostly Cloudy
5:58 AM 73.4 °F - 71.1 °F 92% 30.17 in 10.0 mi ESE 4.6 mph - N/A   Mostly Cloudy
6:38 AM 75.2 °F - 71.6 °F 89% 30.18 in 10.0 mi ESE 4.6 mph - N/A   Mostly Cloudy
6:58 AM 75.2 °F - 70.9 °F 86% 30.19 in 10.0 mi ESE 5.8 mph - N/A   Mostly Cloudy
7:03 AM 75.2 °F - 71.6 °F 89% 30.18 in 10.0 mi ESE 5.8 mph - N/A   Mostly Cloudy
7:58 AM 77.4 °F - 70.7 °F 80% 30.19 in 10.0 mi ESE 8.1 mph - N/A   Partly Cloudy
8:23 AM 77.0 °F - 71.6 °F 83% 30.19 in 10.0 mi SSE 6.9 mph - N/A   Mostly Cloudy
8:58 AM 78.4 °F - 70.9 °F 77% 30.21 in 10.0 mi SE 5.8 mph - N/A   Overcast
9:28 AM 80.6 °F 84.6 °F 71.6 °F 74% 30.20 in 10.0 mi ESE 5.8 mph - N/A   Mostly Cloudy
9:48 AM 80.6 °F 84.6 °F 71.6 °F 74% 30.20 in 10.0 mi Variable 5.8 mph - N/A   Scattered Clouds
9:58 AM 81.3 °F 85.8 °F 71.8 °F 73% 30.21 in 10.0 mi SE 8.1 mph - N/A   Partly Cloudy
10:58 AM 83.7 °F 89.7 °F 72.9 °F 70% 30.19 in 10.0 mi SE 5.8 mph - N/A   Partly Cloudy
10:59 AM 84.2 °F 90.9 °F 73.4 °F 70% 30.01 in 10.0 mi SE 6.9 mph - N/A Thunderstorm Thunderstorm
11:08 AM 82.4 °F 87.2 °F 71.6 °F 70% 30.00 in 10.0 mi SE 13.8 mph - N/A Rain , Thunderstorm Light Thunderstorms and Rain
11:21 AM 82.4 °F 87.2 °F 71.6 °F 70% 30.00 in 10.0 mi SSE 8.1 mph - N/A   Partly Cloudy
11:58 AM 86.4 °F 93.4 °F 73.0 °F 64% 30.17 in 10.0 mi SE 8.1 mph - N/A   Mostly Cloudy
12:58 PM 84.7 °F 90.0 °F 71.2 °F 64% 30.21 in 10.0 mi WNW 16.1 mph 21.9 mph N/A   Mostly Cloudy
1:43 PM 75.2 °F - 69.8 °F 83% 30.20 in 4.0 mi WNW 12.7 mph 17.3 mph N/A Rain Light Rain
1:48 PM 75.2 °F - 69.8 °F 83% 30.20 in 1.2 mi NW 13.8 mph 21.9 mph N/A Rain Heavy Rain
1:53 PM 73.4 °F - 69.8 °F 88% 30.19 in 1.0 mi NW 8.1 mph 21.9 mph N/A Rain Heavy Rain
1:58 PM 75.2 °F - 69.8 °F 83% 30.20 in 1.2 mi NW 8.1 mph 21.9 mph 0.19 in Rain Light Rain
2:01 PM 75.2 °F - 69.8 °F 83% 30.19 in 10.0 mi NW 6.9 mph 21.9 mph N/A   Mostly Cloudy
2:02 PM 75.2 °F - 69.8 °F 83% 30.19 in 7.0 mi WNW 5.8 mph - N/A Rain Light Rain
2:04 PM 75.2 °F - 69.8 °F 83% 30.18 in 10.0 mi WNW 6.9 mph - N/A   Scattered Clouds
2:24 PM 73.4 °F - 69.8 °F 88% 30.17 in 10.0 mi Variable 2.3 mph - N/A   Light Drizzle
2:36 PM 73.4 °F - 69.8 °F 88% 30.16 in 10.0 mi Variable 1.2 mph - N/A   Clear
2:58 PM 74.7 °F - 70.5 °F 87% 30.15 in 10.0 mi WNW 3.5 mph - 0.00 in   Clear
2:59 PM 75.2 °F - 69.8 °F 83% 30.14 in 10.0 mi NW 3.5 mph - N/A Rain Light Rain
3:30 PM 75.2 °F - 71.6 °F 89% 30.13 in 10.0 mi East 2.3 mph - N/A   Clear
3:58 PM 76.3 °F - 70.5 °F 82% 30.14 in 10.0 mi NE 2.3 mph - 0.01 in   Clear
4:58 PM 79.0 °F - 70.3 °F 75% 30.11 in 10.0 mi NNE 2.3 mph - N/A   Clear
5:58 PM 79.0 °F - 71.8 °F 78% 30.12 in 10.0 mi NNE 4.6 mph - N/A   Clear
6:58 PM 79.5 °F - 72.0 °F 78% 30.14 in 10.0 mi NE 4.6 mph - N/A   Clear
7:58 PM 77.5 °F - 71.6 °F 82% 30.13 in 10.0 mi ENE 3.5 mph - N/A   Clear
8:58 PM 74.7 °F - 71.8 °F 91% 30.12 in 10.0 mi NNW 3.5 mph - N/A   Clear
9:58 PM 75.4 °F - 72.5 °F 91% 30.14 in 10.0 mi NE 1.2 mph - N/A   Clear
10:58 PM 74.1 °F - 72.0 °F 93% 30.16 in 10.0 mi WNW 2.3 mph - N/A   Clear
11:58 PM 73.0 °F - 71.4 °F 95% 30.16 in 8.0 mi SE 1.2 mph - N/A   Clear